This is the latest recevied weather packets stored in our database for station/object KR4ELZ. If no packets are shown the sender has not sent any weather packets the latest 1 day(s).
| Time | Temp. | Humidity | Pressure | Rain* | Wind** | Luminosity | Snow |
|---|---|---|---|---|---|---|---|
| 1778097407 | 12.78° C | 99% | 1013.1 hPa | 0 mm | - | 55 W/m² | - |
| 1778096801 | 12.78° C | 99% | 1013.4 hPa | 0 mm | - | 54 W/m² | - |
| 1778096195 | 12.78° C | 99% | 1013.9 hPa | 0 mm | - | 42 W/m² | - |
| 1778093465 | 12.78° C | 98% | 1013.4 hPa | 0 mm | - | 53 W/m² | - |
| 1778092252 | 13.33° C | 99% | 1013.4 hPa | 0 mm | - | 109 W/m² | - |
| 1778088314 | 12.22° C | 99% | 1013.4 hPa | 0 mm | - | 49 W/m² | - |
| 1778086800 | 12.78° C | 99% | 1014.1 hPa | 0 mm | - | 60 W/m² | - |
| 1778086194 | 12.78° C | 99% | 1013.7 hPa | 0 mm | - | 41 W/m² | - |
| 1778084973 | 12.78° C | 99% | 1013 hPa | 0 mm | - | 137 W/m² | - |
| 1778084671 | 12.78° C | 99% | 1012.5 hPa | 0 mm | - | 142 W/m² | - |
| 1778083763 | 12.78° C | 99% | 1013.1 hPa | 1.78 mm | - | 52 W/m² | - |
| 1778083460 | 12.78° C | 99% | 1013.5 hPa | 1.78 mm | - | 39 W/m² | - |
| 1778082855 | 12.78° C | 99% | 1012.7 hPa | 0 mm | - | 68 W/m² | - |
| 1778081434 | 12.78° C | 99% | 1011.9 hPa | 1.27 mm | - | 162 W/m² | - |
| 1778079617 | 12.78° C | 99% | 1012.7 hPa | 3.05 mm | - | 31 W/m² | - |
| 1778079313 | 12.78° C | 99% | 1012.5 hPa | 14.99 mm | - | 40 W/m² | - |
| 1778079011 | 12.78° C | 99% | 1012.5 hPa | 13.72 mm | - | 29 W/m² | - |
| 1778077498 | 13.33° C | 99% | 1013.4 hPa | 0 mm | - | 42 W/m² | - |
| 1778076592 | 12.78° C | 99% | 1012.8 hPa | 0 mm | - | 55 W/m² | - |
| 1778075985 | 12.78° C | 99% | 1012.6 hPa | 0 mm | - | 95 W/m² | - |
| 1778075378 | 12.78° C | 99% | 1012.5 hPa | 0 mm | - | 54 W/m² | - |
| 1778073560 | 12.78° C | 99% | 1011.8 hPa | 0 mm | - | 35 W/m² | - |
| 1778073256 | 12.78° C | 99% | 1011.8 hPa | 0 mm | - | 25 W/m² | - |
| 1778071744 | 13.33° C | 99% | 1011.7 hPa | 0 mm | - | 14 W/m² | - |
| 1778069929 | 12.78° C | 99% | 1009.6 hPa | 0 mm | - | 21 W/m² | - |
* Rain latest hour (hover to see other rain measurements)
** Current wind speed in m/s (hover to see current wind gust speed)